Location: ??
(35.5052°N, 139.7262°E)
Time: 02:37:09
(UTC+00:00)

SJ 16-02 - Pass Details

Date: 20 June 2021
Orbit: 606 x 616 km, 75.0° (Epoch: 26 July)

Event Time Altitude Azimuth Distance (km) Brightness Sun altitude
Rises 13:30:46 0° 8° (N) 2,868 5.7 -28.6°
Reaches altitude 10° 13:34:42 10° 43° (NE) 1,958 4.2 -28.9°
Enters shadow 13:35:42 11° 57° (ENE) 1,882 4.0 -29.0°
